Location: Bocianicha
(51.5066°N, 19.2563°E)
Time: 13:22:58
(UTC+00:00)

H-2A R/B - Pass Details

Date: 15 June 2025
Orbit: 556 x 620 km, 98.4° (Epoch: 17 July)

Event Time Altitude Azimuth Distance (km) Brightness Sun altitude
Rises 01:06:32 0° 13° (NNE) 2,753 6.9 -8.9°
Reaches altitude 10° 01:08:41 10° 12° (NNE) 1,853 5.8 -8.7°
Maximum altitude 01:12:39 73° 288° (WNW) 590 1.9 -8.3°
Drops below altitude 10° 01:16:38 10° 204° (SSW) 1,850 3.9 -8.0°
Enters shadow 01:16:40 10° 204° (SSW) 1,863 3.9 -8.0°
